Weather History for Monett, MO

Change the Weather History Date:

Sunday, July 21, 2013

  Actual Average (KJLN) Record (KJLN)
Temperature  
Mean Temperature 73 °F 81 °F  
Max Temperature 78 °F 91 °F 102 °F (1974)
Min Temperature 68 °F 70 °F 52 °F (1970)
Degree Days  
Heating Degree Days 0 0  
Month to date heating degree days 0  
Since 1 June heating degree days 5  
Since 1 July heating degree days 0  
Cooling Degree Days 8 16  
Month to date cooling degree days 315  
Year to date cooling degree days 813  
Since 1 June cooling degree days 633  
Growing Degree Days 23 (Base 50)    
Moisture  
Dew Point 70 °F    
Average Humidity 91    
Maximum Humidity 100    
Minimum Humidity 74    
Precipitation  
Precipitation 0.09 in 0.12 in 2.75 in (1994)
Month to date precipitation 2.76  
Year to date precipitation 26.57  
Sea Level Pressure  
Sea Level Pressure 29.92 in    
Wind  
Wind Speed 4 mph (SSE)    
Max Wind Speed 14 mph    
Max Gust Speed -    
Visibility 9 miles    
Events Rain , Thunderstorm    
T = Trace of Precipitation, MM = Missing Value Source: NWS Daily Summary

Daily Weather History Graph

Daily Weather History Graph

Search for Another Location

Airport:

Trip Planner

Search our weather history database for the weather conditions in past years. The results will help you decide how hot, cold, wet, or windy it might be!

Date:

Astronomy

Jul. 21, 2013 Rise Set
Actual Time 6:13 AM CDT 8:31 PM CDT
Civil Twilight 5:43 AM CDT 9:00 PM CDT
Nautical Twilight 5:07 AM CDT 9:37 PM CDT
Astronomical Twilight 4:27 AM CDT 10:16 PM CDT
Moon 7:31 PM CDT (7/21) 4:59 AM CDT (7/21)
Length of Visible Light 15h 17m
Length of Day
14h 18m
Waxing Gibbous, 98% of the Moon is Illuminated
Jul 21
Waxing Gibbous
Jul 22
Full
Jul 29
Last Quarter
Aug 6
New
Aug 14
First Quarter

Hourly Weather History & Observations

Time (CDT) Temp. Dew Point Humidity Pressure Visibility Wind Dir Wind Speed Gust Speed Precip Events Conditions
12:15 AM 68.0 °F 68.0 °F 100% 29.96 in 10.0 mi SSE 3.5 mph - N/A Rain Light Rain
12:35 AM 68.0 °F 68.0 °F 100% 29.94 in 10.0 mi SSE 5.8 mph - 0.01 in Rain Light Rain
12:55 AM 69.8 °F 66.2 °F 88% 29.94 in 10.0 mi ESE 4.6 mph - 0.02 in Rain Rain
1:15 AM 69.8 °F 68.0 °F 94% 29.93 in 10.0 mi South 6.9 mph - 0.01 in Rain Light Rain
1:35 AM 69.8 °F 68.0 °F 94% 29.93 in 10.0 mi SSE 3.5 mph - 0.01 in Rain Rain
1:55 AM 68.0 °F 68.0 °F 100% 29.94 in 10.0 mi Calm Calm - 0.02 in Rain , Thunderstorm Light Thunderstorms and Rain
2:15 AM 68.0 °F 68.0 °F 100% 29.95 in 10.0 mi Calm Calm - N/A   Drizzle
2:35 AM 69.8 °F 68.0 °F 94% 29.94 in 10.0 mi Calm Calm - 0.01 in Rain Rain
2:55 AM 68.0 °F 68.0 °F 100% 29.94 in 10.0 mi ENE 5.8 mph - 0.01 in Rain Light Rain
3:15 AM 69.8 °F 68.0 °F 94% 29.93 in 10.0 mi East 6.9 mph - N/A   Scattered Clouds
3:35 AM 69.8 °F 66.2 °F 88% 29.93 in 10.0 mi East 4.6 mph - N/A   Scattered Clouds
3:55 AM 68.0 °F 68.0 °F 100% 29.94 in 10.0 mi Calm Calm - N/A   Scattered Clouds
4:15 AM 68.0 °F 68.0 °F 100% 29.95 in 10.0 mi Calm Calm - N/A   Mostly Cloudy
4:35 AM 68.0 °F 68.0 °F 100% 29.95 in 7.0 mi NW 3.5 mph - N/A   Mostly Cloudy
4:55 AM 68.0 °F 68.0 °F 100% 29.94 in 7.0 mi NW 3.5 mph - N/A   Scattered Clouds
5:15 AM 68.0 °F 68.0 °F 100% 29.95 in 5.0 mi Calm Calm - N/A Thunderstorm Clear
5:35 AM 68.0 °F 68.0 °F 100% 29.95 in 4.0 mi ESE 5.8 mph - N/A   Scattered Clouds
5:55 AM 68.0 °F 68.0 °F 100% 29.95 in 5.0 mi ESE 4.6 mph - N/A   Mostly Cloudy
6:15 AM 68.0 °F 68.0 °F 100% 29.96 in 5.0 mi ESE 4.6 mph - N/A   Overcast
6:35 AM 68.0 °F 68.0 °F 100% 29.96 in 5.0 mi Calm Calm - N/A   Overcast
6:55 AM 68.0 °F 68.0 °F 100% 29.95 in 4.0 mi Calm Calm - N/A   Overcast
7:15 AM 69.8 °F 68.0 °F 94% 29.96 in 7.0 mi Calm Calm - N/A   Overcast
7:35 AM 69.8 °F 68.0 °F 94% 29.96 in 7.0 mi Calm Calm - N/A   Overcast
7:55 AM 69.8 °F 69.8 °F 100% 29.96 in 5.0 mi Calm Calm - N/A   Overcast
8:15 AM 69.8 °F 69.8 °F 100% 29.96 in 5.0 mi ESE 4.6 mph - N/A   Overcast
8:35 AM 69.8 °F 69.8 °F 100% 29.96 in 5.0 mi Calm Calm - N/A   Mostly Cloudy
8:55 AM 71.6 °F 69.8 °F 94% 29.96 in 7.0 mi SE 3.5 mph - N/A   Mostly Cloudy
9:15 AM 71.6 °F 69.8 °F 94% 29.96 in 7.0 mi ESE 3.5 mph - N/A   Mostly Cloudy
9:35 AM 71.6 °F 69.8 °F 94% 29.96 in 7.0 mi SE 5.8 mph - N/A   Light Drizzle
9:55 AM 71.6 °F 69.8 °F 94% 29.96 in 7.0 mi SE 3.5 mph - N/A   Drizzle
10:15 AM 71.6 °F 69.8 °F 94% 29.97 in 10.0 mi South 3.5 mph - N/A Rain Light Rain
10:35 AM 71.6 °F 69.8 °F 94% 29.97 in 10.0 mi SSE 5.8 mph - N/A   Overcast
10:55 AM 71.6 °F 69.8 °F 94% 29.97 in 7.0 mi Calm Calm - 0.01 in Rain Rain
11:15 AM 71.6 °F 69.8 °F 94% 29.97 in 7.0 mi Calm Calm - 0.01 in Rain Light Rain
11:35 AM 71.6 °F 69.8 °F 94% 29.98 in 10.0 mi Calm Calm - 0.01 in   Light Drizzle
11:55 AM 73.4 °F 69.8 °F 88% 29.98 in 10.0 mi Calm Calm - 0.01 in Rain Rain
12:15 PM 73.4 °F 69.8 °F 88% 29.97 in 10.0 mi Calm Calm - N/A Rain Rain
1:15 PM 73.4 °F 71.6 °F 94% 29.96 in 10.0 mi SSW 5.8 mph - N/A Rain Rain
1:35 PM 73.4 °F 71.6 °F 94% 29.94 in 10.0 mi South 5.8 mph - N/A Rain Light Rain
1:55 PM 75.2 °F 71.6 °F 89% 29.93 in 10.0 mi SSE 4.6 mph - N/A   Overcast
2:15 PM 75.2 °F 71.6 °F 89% 29.92 in 10.0 mi SSW 6.9 mph - N/A   Overcast
2:35 PM 77.0 °F 71.6 °F 83% 29.91 in 10.0 mi SW 10.4 mph - N/A   Overcast
2:55 PM 77.0 °F 71.6 °F 83% 29.91 in 10.0 mi SSW 10.4 mph - N/A   Overcast
3:15 PM 73.4 °F 71.6 °F 94% 29.90 in 4.0 mi SSW 6.9 mph - 0.02 in Rain Rain
3:35 PM 77.0 °F 71.6 °F 83% 29.89 in 10.0 mi South 10.4 mph - 0.02 in   Mostly Cloudy
3:55 PM 78.8 °F 71.6 °F 78% 29.88 in 10.0 mi South 13.8 mph - 0.02 in   Mostly Cloudy
4:15 PM 78.8 °F 69.8 °F 74% 29.88 in 10.0 mi SSW 11.5 mph - N/A   Overcast
4:35 PM 78.8 °F 69.8 °F 74% 29.88 in 10.0 mi SSW 9.2 mph - N/A   Overcast
4:55 PM 78.8 °F 71.6 °F 78% 29.88 in 10.0 mi SSW 9.2 mph - N/A   Mostly Cloudy
5:15 PM 78.8 °F 71.6 °F 78% 29.88 in 10.0 mi SSW 9.2 mph - N/A   Mostly Cloudy
5:35 PM 78.8 °F 71.6 °F 78% 29.88 in 10.0 mi SW 5.8 mph - N/A   Overcast
5:55 PM 78.8 °F 71.6 °F 78% 29.88 in 10.0 mi SW 6.9 mph - N/A   Overcast
6:15 PM 78.8 °F 71.6 °F 78% 29.88 in 10.0 mi SW 6.9 mph - N/A   Overcast
6:35 PM 78.8 °F 71.6 °F 78% 29.88 in 10.0 mi SW 5.8 mph - N/A   Overcast
6:55 PM 78.8 °F 71.6 °F 78% 29.88 in 10.0 mi SW 6.9 mph - N/A   Mostly Cloudy
7:15 PM 78.8 °F 71.6 °F 78% 29.88 in 10.0 mi Calm Calm - N/A   Scattered Clouds
7:35 PM 78.8 °F 71.6 °F 78% 29.88 in 10.0 mi Calm Calm - N/A   Clear
7:55 PM 77.0 °F 73.4 °F 89% 29.88 in 10.0 mi Calm Calm - N/A   Scattered Clouds
8:15 PM 77.0 °F 73.4 °F 89% 29.88 in 10.0 mi SSE 3.5 mph - N/A   Scattered Clouds
8:35 PM 75.2 °F 71.6 °F 89% 29.88 in 10.0 mi SSE 3.5 mph - N/A   Mostly Cloudy
8:55 PM 75.2 °F 71.6 °F 89% 29.88 in 10.0 mi Calm Calm - N/A   Mostly Cloudy
9:15 PM 73.4 °F 71.6 °F 94% 29.88 in 10.0 mi SE 3.5 mph - N/A   Mostly Cloudy
9:35 PM 73.4 °F 71.6 °F 94% 29.89 in 10.0 mi SE 3.5 mph - N/A   Scattered Clouds
9:55 PM 75.2 °F 71.6 °F 89% 29.89 in 10.0 mi ESE 4.6 mph - N/A   Mostly Cloudy
10:15 PM 75.2 °F 71.6 °F 89% 29.89 in 10.0 mi ESE 5.8 mph - N/A   Overcast
10:35 PM 73.4 °F 71.6 °F 94% 29.89 in 10.0 mi ESE 4.6 mph - N/A   Mostly Cloudy
10:55 PM 73.4 °F 71.6 °F 94% 29.90 in 10.0 mi East 4.6 mph - N/A Thunderstorm Mostly Cloudy
11:15 PM 73.4 °F 71.6 °F 94% 29.89 in 7.0 mi East 4.6 mph - N/A   Mostly Cloudy
11:35 PM 73.4 °F 71.6 °F 94% 29.90 in 7.0 mi ESE 5.8 mph - N/A   Mostly Cloudy
11:55 PM 73.4 °F 71.6 °F 94% 29.90 in 7.0 mi SE 5.8 mph - N/A Thunderstorm Overcast